Torna al catalogo

SATCOM 2R

AttivoComunicazioniGEO
NORAD 14328·PAYLOAD·🇺🇸 United States

Lanciato Sep 8, 1983 da Cape Canaveral Space Force Station

Loading…

TLE

AggiornatoSource: Space-Track

Epoca: Sep 14, 2026, 05:33 UTC

1 14328U 83094A   26257.23139185 -.00000058  00000-0  00000-0 0  9990
2 14328  14.2689 345.2620 0012792  83.5882 271.2767  0.99407299156437

Traccia SATCOM 2R in tempo reale con AllMySat

Download on the App Store